TIME,DELAY(SENSOR),PRES,T(CTD),SAL,OXYGEN,RAWTEMP,T(OPTODE),TCPHASE,FLUOR,BETA(BETA700),BETA(BETA412),BETA(BETA440),CDOM,C(CSC),ED(ED412.40),ED(ED444.00),ED(ED489.70),ED(ED554.30),LU(LU411.80),LU(LU443.40),LU(LU489.60),LU(LU554.10),COMP,TILTX,TILTX(TILTY),CHECK
1372282977,5810,497.4899902343750000,6.3284997940063480,34.1412010192871100,63.4372291564941400,608.6376953125000000,6.3048801422119140,51.0740089416503900,52,106,88,79,79,15479,2147748306,2147427291,2148006848,2147871350,2147630491,2147073005,2148249380,2147198217,2529,4,13,41305
1372283106,5808,486.5899963378906000,6.4225001335144040,34.1347999572753900,68.2797164916992200,605.4365844726562000,6.4085030555725100,50.4098205566406250,53,103,88,80,79,15478,2147749238,2147424859,2148010614,2147870537,2147631424,2147071853,2148246454,2147199753,1262,3,13,37117
1372283233,5811,475.6700134277344000,6.5338997840881350,34.1186981201171900,73.8658676147461000,602.2280883789062000,6.5122680664062500,49.6757888793945300,52,103,87,79,78,15479,2147747465,2147425225,2148006674,2147874249,2147631634,2147078518,2148244580,2147198491,195,4,13,51372
1372283372,5810,464.1000061035156000,6.6367001533508300,34.1119003295898440,81.0366897583007800,599.0200805664062000,6.6159172058105470,48.7725181579589840,52,104,88,79,78,15479,2147746294,2147426596,2148006848,2147871954,2147624429,2147077458,2148244470,2147198171,2657,3,12,41162
1372283501,5803,453.5100097656250000,6.8428001403808590,34.0992012023925800,87.3267898559570300,592.0457153320312000,6.8409209251403810,47.9504699707031250,52,108,85,80,78,15479,2147747291,2147423762,2148006829,2147874605,2147626285,2147077138,2148242432,2147201142,1434,3,13,17331
1372283640,5807,442.9100036621094000,7.0380997657775880,34.0919990539550800,95.1050872802734400,586.5269775390625000,7.0186390876770020,47.0064315795898440,52,105,86,80,78,15476,2147745874,2147423524,2148006372,2147873883,2147625782,2147083081,2148238829,2147198555,1309,4,13,31460
1372283802,5810,430.0599975585937500,7.2220001220703125,34.0848007202148440,105.6698989868164000,580.7266845703125000,7.2051239013671875,45.8038482666015600,51,105,84,80,76,15478,2147744704,2147424128,2148005970,2147872512,2147626194,2147077979,2148243419,2147200667,3538,3,13,16617
1372283917,5808,419.4100036621094000,7.5641999244689940,34.0857009887695300,114.9669036865234400,569.8944702148438000,7.5525779724121090,44.7001419067382800,50,105,87,80,75,15478,2147741284,2147422418,2148006930,2147876297,2147626998,2147076854,2148235940,2147200704,2862,4,13,28695
1372284034,5809,408.4299926757812500,7.8930997848510740,34.0880012512207000,122.1604003906250000,559.4915161132812000,7.8853020668029785,43.8371696472168000,51,107,87,80,76,15476,2147744365,2147422784,2148005686,2147873910,2147623286,2147082779,2148232612,2147198125,2754,4,13,60551
1372284149,5807,397.5799865722656000,8.1634998321533200,34.0918998718261700,132.2781982421875000,551.3989257812500000,8.1434898376464840,42.7720413208007800,50,107,89,79,74,15475,2147743661,2147423305,2148005074,2147875931,2147624384,2147076827,2148233334,2147202989,2521,4,13,24966
1372284264,5806,386.3099975585937500,8.2741003036499020,34.0941009521484400,136.5363006591797000,547.5734252929688000,8.2653512954711910,42.3302688598632800,50,105,85,79,75,15473,2147741293,2147426112,2148005622,2147873472,2147619867,2147087268,2148232813,2147199469,3046,3,13,2384
1372284381,5809,375.3900146484375000,8.5048999786376950,34.0913009643554700,142.9387054443359400,540.5734252929688000,8.4880275726318360,41.6615600585937500,50,105,86,79,74,15471,2147739044,2147425334,2148007158,2147873152,2147618541,2147090276,2148230445,2147199808,2272,4,13,10100
1372284508,5810,364.0700073242187500,8.6199998855590820,34.0898017883300800,151.7552947998047000,536.7655029296875000,8.6089935302734380,40.8683815002441400,50,106,86,80,74,15474,2147738578,2147426806,2148005467,2147873691,2147619849,2147087341,2148234980,2147204507,1290,4,13,18952
1372284635,5806,353.5299987792969000,8.8010997772216800,34.0876007080078100,157.3556060791015600,531.3718261718750000,8.7801418304443360,40.3323097229003900,50,105,85,79,74,15474,2147737782,2147428297,2148004617,2147874733,2147615616,2147089380,2148229467,2147201682,1576,4,13,1280
1372284788,5813,342.5700073242187500,9.0334997177124020,34.0914001464843750,166.3578033447265600,524.0587768554688000,9.0118331909179690,39.5201606750488300,49,106,87,80,73,15472,2147737801,2147424987,2148007606,2147870564,2147615835,2147091437,2148226560,2147201545,1467,3,13,4071
1372284951,5810,331.8900146484375000,9.4324998855590820,34.1007995605468750,177.6436004638672000,510.9100952148437500,9.4273929595947270,38.4794387817382800,50,105,87,80,72,15473,2147736777,2147426404,2148005842,2147872731,2147613403,2147091739,2148224320,2147203629,3506,4,13,54894
1372285101,5807,319.8900146484375000,9.8903999328613280,34.1109008789062500,187.6080932617187500,496.2333068847656000,9.8897762298583980,37.5518913269043000,50,106,87,80,72,15470,2147734957,2147425545,2148005174,2147872265,2147609536,2147103497,2148226203,2147208502,3331,3,13,14352
1372285216,5811,309.1400146484375000,10.2846002578735350,34.1307983398437500,198.8896026611328000,483.8088073730469000,10.2800397872924800,36.6195602416992200,49,106,84,79,69,15475,2147733366,2147424658,2148006656,2147874688,2147612516,2147101650,2148220681,2147207323,2800,3,13,42869
1372285333,5807,298.1400146484375000,10.8437004089355470,34.1590003967285160,211.6669006347656200,466.2951049804687500,10.8284597396850590,35.5639495849609400,48,105,85,79,69,15472,2147730733,2147428754,2148014098,2147871963,2147609225,2147106358,2148223561,2147204489,2925,4,13,34583
1372285448,5807,287.1400146484375000,11.3185997009277340,34.1749000549316400,212.7776031494140600,450.8287048339844000,11.3112201690673830,35.2477607727050800,49,106,86,79,68,15471,2147730038,2147430016,2148015734,2147873636,2147605833,2147106953,2148223762,2147205568,3181,3,13,36142
1372285563,5809,276.4500122070312500,11.6697998046875000,34.2037010192871100,220.1763000488281200,439.7309875488281000,11.6567697525024410,34.6536102294921900,48,106,87,80,68,15473,2147730075,2147432987,2148026688,2147871616,2147601170,2147116635,2148221732,2147207213,2165,3,13,32212
1372285692,5807,264.7900085449219000,11.9893999099731450,34.2108993530273440,220.5897979736328000,429.2222900390625000,11.9833602905273440,34.4636116027832000,49,105,87,81,68,15473,2147727158,2147438646,2148048228,2147870235,2147601124,2147121088,2148233243,2147211684,901,3,14,45480
1372285807,5805,254.9499969482422000,12.1870002746582030,34.2150993347168000,218.2666015625000000,422.5091857910156000,12.1916904449462890,34.4860916137695300,49,105,87,81,67,15471,2147729371,2147449883,2148076278,2147874907,2147603300,2147125467,2148244918,2147210688,278,3,13,48894
1372285948,5808,244.1300048828125000,12.5023002624511720,34.1735992431640600,197.7108001708984400,412.0675964355469000,12.5152997970581050,35.5243301391601560,50,109,87,80,70,15467,2147727085,2147449645,2148068736,2147873618,2147598582,2147132580,2148238473,2147210998,489,3,13,63951
1372286123,5812,233.4799957275390600,13.5750999450683600,34.2722015380859400,201.7350006103515600,374.1545104980469000,13.6861896514892580,34.6872482299804700,49,108,88,81,68,15464,2147723876,2147460955,2148086912,2147873755,2147596032,2147144603,2148239040,2147204873,2597,3,15,33105
1372286319,5809,221.1199951171875000,14.4612998962402340,34.3953018188476560,221.1979980468750000,349.2062072753906000,14.4536800384521480,33.2052803039550800,49,106,86,79,66,15467,2147730121,2147483876,2148126582,2147869229,2147594057,2147168923,2148259291,2147213604,1338,3,14,50527
1372286446,5805,210.2700042724609400,15.0824003219604500,34.4430999755859400,222.0959014892578000,326.5853881835937500,15.1478996276855470,32.8238716125488300,48,105,87,80,67,15463,2147737353,2147517284,2148191515,2147871954,2147592045,2147190162,2148285001,2147217782,113,2,13,9909
1372286569,5807,199.5599975585937500,16.3479995727539060,34.5626983642578100,216.8363952636718800,285.7930908203125000,16.3967704772949220,32.5163803100585940,50,105,88,80,64,15461,2147736795,2147518427,2148176329,2147874944,2147592448,2147198893,2148273170,2147216374,2524,3,14,35424
1372286651,5814,191.8000030517578000,17.1518993377685550,34.6703987121582000,216.4541015625000000,259.9455871582031000,17.1867408752441400,32.1702690124511700,52,108,85,80,67,15453,2147741156,2147532315,2148191140,2147873106,2147588315,2147211474,2148280621,2147220598,1772,2,14,14848
1372286706,5805,186.5500030517578000,17.7203998565673830,34.7569999694824200,217.1876068115234400,243.4568023681640600,17.6903896331787100,31.9000301361084000,54,109,86,81,64,15447,2147749238,2147550226,2148212205,2147868059,2147589449,2147226550,2148289627,2147219392,1324,3,14,56924
1372286761,5806,181.5099945068359400,18.3113002777099600,34.8433990478515600,217.4328002929687500,221.8502044677734400,18.3502197265625000,31.5878200531005860,58,111,86,80,65,15441,2147759762,2147575268,2148248466,2147871360,2147590756,2147246683,2148300315,2147219602,932,3,14,18989
1372286816,5808,176.7299957275390600,18.6198005676269530,34.8941001892089840,219.5901031494140600,212.9797058105468800,18.6211204528808600,31.3523292541503900,62,111,90,81,64,15441,2147762331,2147583771,2148254144,2147873536,2147592310,2147253604,2148304941,2147219264,256,3,14,56018
1372286892,5809,170.5200042724609400,19.0955009460449220,34.9562988281250000,220.1463928222656200,197.6871948242187500,19.0882396697998050,31.1154003143310550,72,115,89,80,62,15430,2147765056,2147568164,2148220187,2147870144,2147593152,2147249380,2148282166,2147221942,3242,2,15,12196
1372286947,5808,166.5399932861328000,19.3810997009277340,35.0035018920898440,221.4353027343750000,188.5731964111328000,19.3667106628417970,30.9256095886230470,76,116,87,80,63,15417,2147757211,2147542939,2148173568,2147872841,2147584045,2147243730,2148255798,2147218944,3190,3,15,44629
1372287002,5805,162.6300048828125000,19.7520008087158200,35.0601005554199200,222.5225982666015600,176.5298004150390600,19.7348403930664060,30.7086791992187500,81,119,90,81,62,15414,2147768905,2147567323,2148206793,2147874057,2147590217,2147255853,2148271168,2147220800,3071,3,15,26914
1372287057,5808,158.9900054931640600,19.8862991333007800,35.0742988586425800,223.5009002685547000,171.6047973632812500,19.8854293823242200,30.5932407379150400,87,118,87,83,62,15408,2147798208,2147620050,2148283748,2147873490,2147600685,2147290121,2148301513,2147224173,3357,3,15,44473
1372287124,5811,154.7599945068359400,20.1326007843017580,35.1016998291015600,222.9302062988281200,163.0946960449218800,20.1457290649414060,30.5086708068847660,94,124,92,83,62,15400,2147863689,2147735625,2148443666,2147871003,2147623597,2147349165,2148370569,2147228626,386,2,15,48642
1372287204,5807,150.6199951171875000,20.6431007385253900,35.1795005798339840,224.7256011962890600,147.6210021972656200,20.6193599700927730,30.2138805389404300,112,126,89,83,62,15377,2147948379,2147882011,2148653257,2147872576,2147664512,2147429723,2148461348,2147235949,3121,2,15,20175
1372287295,5812,146.7899932861328000,20.9591999053955080,35.2291984558105500,226.6316986083984400,136.6914978027343800,20.9542007446289060,29.9762001037597660,121,124,91,82,60,15368,2148060269,2148067136,2148902281,2147875666,2147710272,2147532114,2148568009,2147247433,2806,1,16,42483
1372287386,5807,142.6399993896484400,21.2756996154785160,35.2727012634277340,229.0518035888672000,126.8815002441406200,21.2549800872802730,29.7299900054931640,127,125,88,81,61,15347,2148195062,2148281600,2149190985,2147878646,2147772498,2147637485,2148680493,2147256969,2165,2,15,56444
1372287477,5809,138.5399932861328000,21.4776992797851560,35.2938995361328100,230.9842071533203000,120.4961013793945300,21.4508895874023440,29.5540103912353500,140,129,89,99,60,15336,2148424704,2148660406,2149689755,2147883245,2147870637,2147818477,2148882541,2147272429,1168,2,15,46280
1372287570,5811,134.7500000000000000,21.6650009155273440,35.3098983764648440,231.8683929443359400,113.8420028686523400,21.6551799774169920,29.4260902404785160,150,132,88,81,60,15326,2148776320,2149211099,2150410779,2147887771,2148025005,2148070902,2149166244,2147298770,602,1,15,54923
1372287673,5809,131.1600036621093800,21.7801990509033200,35.3143997192382800,234.8121948242187500,110.1240997314453100,21.7693691253662100,29.2390403747558600,156,126,89,83,61,15322,2149003273,2149533568,2150764909,2147891117,2148111670,2148193654,2149287332,2147308790,3201,2,15,13678
1372287800,5808,127.0800018310546900,21.9008998870849600,35.3184013366699200,236.4163970947265600,105.7942962646484400,21.9024200439453120,29.1087703704834000,161,123,87,82,61,15316,2149066550,2149574720,2150717010,2147891556,2148134857,2148192731,2149253833,2147309101,624,2,15,45709
1372287912,5806,122.6200027465820300,21.9780006408691400,35.3302993774414060,237.7754974365234400,103.4514007568359400,21.9744396209716800,29.0157508850097660,127,118,88,82,60,15337,2149685952,2150471570,2151741549,2147903488,2148411483,2148609920,2149677540,2147348534,261,2,15,46637
1372287991,5807,118.7200012207031200,22.0823001861572270,35.3437004089355500,238.0852966308593800,99.5494689941406200,22.0944099426269530,28.9518795013427730,111,116,90,81,60,15331,2150471744,2151580041,2152995867,2147919085,2148779410,2149173238,2150236425,2147398774,3584,1,15,45357
1372288082,5810,114.3899993896484400,22.1536006927490230,35.3381996154785160,239.5941009521484400,97.8145065307617200,22.1477794647216800,28.8606300354003900,91,117,88,82,60,15355,2152035492,2153754139,2155481883,2147951222,2149541074,2150328283,2151389869,2147496822,3337,2,15,52985
1372288163,5807,110.3799972534179700,22.1865997314453120,35.3326988220214840,240.3027954101562500,96.6512603759765600,22.1835594177246100,28.8136596679687500,86,115,88,82,59,15363,2154167332,2156644626,2158717302,2148006253,2150604626,2151915520,2152938971,2147632265,3476,1,15,61584
1372288242,5808,106.6800003051757800,22.3868007659912100,35.3564987182617200,241.0196990966797000,90.4790573120117200,22.3735103607177730,28.7029705047607420,82,118,88,83,58,15360,2154729984,2157121142,2158949705,2148014628,2150986029,2152337472,2153186340,2147658889,2572,1,16,8021
1372288333,5807,102.7399978637695300,22.4416007995605470,35.3693008422851560,242.0529937744140600,88.4702072143554700,22.4353694915771500,28.6309795379638670,81,119,90,83,59,15348,2156757778,2159584356,2161447085,2148072173,2152149787,2153877257,2154508681,2147778505,1674,1,16,23697
1372288424,5805,98.6500015258789000,22.6026992797851560,35.3755989074707000,242.9326019287109400,82.9938201904296900,22.6040592193603500,28.5227699279785160,78,118,90,84,57,15358,2160100288,2163727725,2165833024,2148185033,2154103360,2156500260,2156812790,2147982774,718,2,16,939
1372288481,5811,96.2200012207031200,22.6441001892089840,35.3796997070312500,244.1325073242187500,81.9919509887695300,22.6349296569824220,28.4565792083740230,77,119,90,81,57,15353,2165362486,2170572361,2173431259,2148394569,2157054546,2160601161,2160592576,2148319332,62,2,15,28181
1372288536,5810,93.8000030517578100,22.6842002868652340,35.3821983337402340,244.7805023193359400,80.5890274047851600,22.6781692504882800,28.4101600646972660,75,119,90,83,58,15358,2165677622,2170579282,2173071305,2148413010,2157505362,2160976950,2160708425,2148332242,3315,2,16,11173
1372288591,5805,91.3600006103515600,22.7514991760253900,35.3848991394043000,245.2845001220703000,78.7748031616211000,22.7341003417968750,28.3651504516601560,74,120,92,83,56,15347,2162283090,2165654939,2167173741,2148277275,2155766793,2158212123,2157870244,2148090605,3272,1,16,3023
1372288646,5808,89.1399993896484400,22.7745990753173830,35.3861007690429700,246.0870056152343800,77.6178436279296900,22.7697696685791000,28.3152294158935550,76,118,89,84,57,15353,2163920146,2167421568,2168856941,2148357568,2156834523,2159461513,2158839076,2148186240,65,2,15,24783
1372288701,5807,87.0500030517578100,22.8024997711181640,35.3865013122558600,246.5648956298828000,76.6570816040039000,22.7993907928466800,28.2821598052978500,75,119,89,82,58,15350,2166917732,2170932708,2172472676,2148504850,2158733677,2161831277,2160812352,2148371264,456,1,16,50491
1372288756,5810,85.1699981689453100,22.8481006622314450,35.3871994018554700,247.0686035156250000,75.3021469116211000,22.8411808013916000,28.2432594299316400,75,120,92,83,59,15354,2174178313,2179924452,2182135424,2148848969,2163164077,2167647040,2165899510,2148839844,277,1,15,46869
1372288825,5808,82.9100036621093800,22.8645000457763670,35.3890991210937500,247.7595062255859400,74.6007308959961000,22.8628196716308600,28.2042808532714840,75,121,90,83,57,15343,2180193746,2186872813,2189177782,2149178477,2167143488,2172560182,2169945097,2149221988,3299,1,16,1776
1372288880,5806,81.1800003051757800,22.8920001983642580,35.3904991149902340,248.0514984130859400,73.6980972290039000,22.8906593322753900,28.1802692413330080,75,120,92,84,58,15343,2188273581,2196465490,2199274340,2149671360,2172155154,2178802404,2175202075,2149737856,2995,1,16,43772
1372288947,5806,79.0899963378906200,22.9354000091552730,35.3879013061523440,248.5778045654297000,72.4360961914062500,22.9295997619628900,28.1417903900146500,75,119,91,84,57,15342,2190579291,2198586596,2200943094,2149800210,2173925549,2180598683,2176354596,2149854765,2788,1,16,3274
1372289014,5809,77.1699981689453100,22.9839992523193360,35.3824996948242200,248.7595062255859400,70.9254837036132800,22.9762096405029300,28.1151103973388670,73,120,93,83,57,15349,2200887049,2210403456,2213020845,2150477476,2180730816,2188906441,2183170093,2150524434,2812,1,16,43921
1372289093,5809,75.3099975585937500,23.0687007904052730,35.3889999389648440,248.9931945800781200,68.0120315551757800,23.0661392211914060,28.0687904357910160,72,119,91,84,58,15340,2194729773,2202115456,2203633106,2150197860,2177004891,2183491748,2178107812,2150076827,3150,1,16,55408
1372289172,5809,72.8799972534179700,23.1450996398925780,35.3838996887207000,249.8809967041015600,65.6741104125976600,23.1383304595947270,28.0012207031250000,69,121,93,85,59,15331,2181110592,2185011373,2185057170,2149456365,2169031286,2172786834,2168592091,2149189494,2089,1,16,22087
1372289227,5808,70.2300033569336000,23.1674003601074220,35.3837013244628900,250.7317047119140600,64.8667831420898400,23.1632709503173830,27.9547004699707030,69,121,91,83,57,15325,2174682322,2176923373,2176427163,2149118939,2165197028,2167655131,2164088521,2148766162,1302,1,16,4176
1372289282,5807,67.2900009155273400,23.2865009307861330,35.3809013366699200,251.0063018798828000,62.4736785888671900,23.2371902465820300,27.9133491516113280,67,123,90,83,59,15325,2172157440,2173658688,2172970212,2149088347,2163840813,2165702546,2162323053,2148620187,1158,1,16,18994
1372289337,5805,64.6200027465820300,23.3805007934570300,35.3755989074707000,251.4700927734375000,57.7845611572265600,23.3821201324462900,27.8355007171630860,66,121,90,85,58,15322,2172232100,2173468086,2172664064,2149161947,2164233572,2165907364,2162346596,2148638774,938,1,16,12201
1372289392,5808,62.4300003051757800,23.5107002258300780,35.3750000000000000,252.0935974121093800,54.1705818176269500,23.4938793182373050,27.7643795013427730,68,126,89,85,55,15317,2174273993,2175500955,2174528722,2149364891,2165965275,2167665746,2163578258,2148784987,176,1,15,31923
1372289447,5807,60.7000007629394500,23.6326999664306640,35.3728981018066400,252.2207031250000000,52.0792198181152340,23.5585803985595700,27.7331104278564450,66,121,90,85,57,15311,2177819264,2179152768,2178015616,2149703972,2168724489,2170574116,2165705417,2149024585,95,1,15,16336
1372289504,5812,59.5400009155273440,23.6207008361816400,35.3661994934082000,252.3735961914062500,50.3566589355468750,23.6118907928466800,27.7054195404052730,66,121,93,87,57,15314,2182390308,2183918592,2182618157,2150133641,2172227794,2174346075,2168529947,2149344914,591,1,16,11954
1372289691,5809,57.7299995422363300,23.5870990753173830,35.3339996337890600,252.7483062744140600,50.8745613098144500,23.5958595275878900,27.6958293914794920,66,121,90,84,57,15302,2199395382,2201594715,2199597696,2151651072,2184930633,2187970011,2178659958,2150466294,2886,1,16,13450
1372289842,5808,54.7700004577636700,23.7660007476806640,35.3156013488769500,251.9248962402343800,45.9942512512207000,23.7469501495361330,27.6707992553710940,64,120,92,86,56,15316,2217070848,2219370212,2216572662,2153868397,2199222464,2202746870,2189403648,2151796818,2342,1,16,37216
1372289897,5808,52.5800018310546900,23.6452999114990230,35.2042007446289060,252.3923034667968800,48.7906684875488300,23.6603603363037100,27.6852798461914060,69,122,93,86,58,15293,2294142436,2304451556,2304443044,2164889097,2256436946,2267516772,2240467574,2158053229,2361,1,16,17696
1372289952,5809,50.7599983215332000,23.7362003326416000,35.1870002746582000,251.8208007812500000,46.4240303039550800,23.7336406707763670,27.6805591583251950,66,121,90,85,59,15300,2279345938,2286032877,2283885577,2163151497,2248025929,2256393700,2230748196,2157001042,2288,1,16,1295
1372290007,5806,49.4300003051757800,23.8616008758544920,35.1929016113281250,251.3737945556640600,42.3123092651367200,23.8610191345214840,27.6489295959472660,66,122,94,84,56,15299,2296649060,2304363209,2302652644,2166232256,2260066038,2269450166,2240890614,2158483693,2086,1,16,41101
1372290146,5808,47.1399993896484400,24.0734004974365230,35.2022018432617200,251.4208068847656200,35.4223709106445300,24.0746402740478500,27.5621891021728500,64,122,92,84,59,15296,2330312667,2338037924,2336219538,2173095890,2289263561,2300112329,2263837494,2161704667,819,1,16,26280
1372290213,5808,45.2000007629394500,24.2492008209228500,35.2023010253906250,251.1161956787109400,30.1392307281494140,24.2386093139648440,27.5104293823242200,60,122,91,84,56,15296,2356791286,2365873280,2365362770,2179668077,2308096512,2318622491,2277206336,2164012653,416,1,16,22208
1372290292,5808,43.2200012207031250,24.3411998748779300,35.2084007263183600,251.1130981445312500,26.3888397216796880,24.3550891876220700,27.4646091461181640,62,126,92,85,61,15289,2355451858,2361044022,2358035858,2180936512,2314319899,2323006436,2279060041,2164620873,1040,1,16,44192
1372290371,5808,41.3199996948242200,24.4293994903564450,35.2100982666015600,251.0012969970703000,23.8437004089355470,24.4341793060302730,27.4382801055908200,60,121,94,86,58,15291,2366126701,2371246080,2367806573,2184577755,2324816274,2332383670,2285188973,2166014930,1165,1,16,39209
1372290450,5808,38.7000007629394500,24.6336994171142580,35.2127990722656250,250.1128997802734400,17.3473491668701170,24.6362094879150400,27.3964195251464840,58,126,94,84,55,15294,2402163126,2407067282,2403328109,2195805549,2363123309,2370351369,2312415963,2170640822,1264,1,16,5260
1372290505,5807,36.4099998474121100,24.9722003936767580,35.2648010253906250,248.3289947509765600,7.1569561958312990,24.9535808563232420,27.3480701446533200,58,121,92,86,51,15297,2337069028,2336832603,2330632914,2184316882,2310381833,2310454966,2265320621,2164590134,1954,0,16,49286
1372290560,5806,34.5099983215332000,25.2560997009277340,35.3035011291503900,247.1896972656250000,-1.7386879920959473,25.2311191558837900,27.2886009216308600,58,121,88,83,54,15291,2322739501,2320568749,2313714724,2182691904,2300282806,2298177014,2255422656,2163472283,1978,1,17,14516
1372290615,5807,32.9300003051757800,25.4747009277343750,35.3111000061035160,246.2145996093750000,-7.1136832237243650,25.3990402221679700,27.2647800445556640,58,124,94,84,58,15298,2356162944,2355336438,2349488786,2193929380,2330489453,2328608219,2277614226,2167587739,1317,1,16,8454
1372290682,5806,31.5499992370605470,26.2241992950439450,35.3498001098632800,241.6622924804687500,-28.5316390991210940,26.0699596405029300,27.2014293670654300,59,119,93,86,54,15289,2344160630,2342438619,2336227227,2193268809,2324211684,2320982482,2271717760,2167075648,1299,2,17,14812